Date,TemperatureHighF,TemperatureAvgF,TemperatureLowF,DewpointHighF,DewpointAvgF,DewpointLowF,HumidityHigh,HumidityAvg,HumidityLow,PressureMaxIn,PressureMinIn,WindSpeedMaxMPH,WindSpeedAvgMPH,GustSpeedMaxMPH,PrecipitationSumIn
2014-2-1,27.8,24.3,22.8,12.5,10.4,5.5,64,56,38,30.17,29.87,10,2,10,0.00
2014-2-2,39.0,28.6,22.8,31.3,19.2,12.5,74,67,64,29.96,29.78,13,2,13,0.00
2014-2-3,38.8,29.7,27.5,31.3,28.7,26.1,100,96,74,30.14,29.93,14,4,14,0.00
2014-2-4,28.7,24.3,12.9,28.7,16.6,6.8,100,74,44,30.29,30.02,9,2,9,0.00
2014-2-5,33.1,27.0,22.4,32.3,23.2,13.1,100,86,56,30.08,29.46,16,3,16,0.00
2014-2-6,24.2,19.1,12.5,15.2,6.1,1.9,74,57,40,30.08,29.81,15,4,15,0.04
2014-2-7,22.1,18.5,14.7,9.9,4.8,-1.1,68,55,36,30.08,29.99,18,6,18,0.00
2014-2-8,23.3,17.6,12.4,-1.1,-6.3,-9.5,38,34,30,30.08,29.90,16,5,16,0.00
2014-2-9,17.6,14.5,12.7,17.6,2.0,-4.2,100,57,38,29.93,29.72,15,4,15,0.00
2014-2-10,22.6,18.9,12.7,17.6,2.9,-5.8,100,55,32,29.99,29.75,21,9,21,0.00
2014-2-11,19.6,18.4,12.9,-5.5,-6.2,-9.1,36,33,32,30.46,29.99,20,7,20,0.00
2014-2-12,19.0,14.1,2.3,-0.4,-7.9,-18.5,48,36,32,30.52,30.32,12,3,12,0.00
2014-2-15,30.4,26.7,21.5,29.5,17.7,2.3,100,71,42,29.84,29.64,33,17,33,0.00
2014-2-16,21.5,15.5,12.4,7.7,-0.3,-4.5,62,49,38,30.14,29.84,25,16,25,0.00
2014-2-17,21.0,18.3,17.6,6.8,4.6,-4.2,62,56,32,30.37,30.14,12,5,12,0.00
2014-2-18,34.0,25.7,21.0,30.0,8.1,-4.2,100,50,32,30.29,29.96,27,4,27,0.00
2014-2-19,41.2,30.2,20.6,34.5,24.1,10.1,100,79,46,30.08,29.72,38,4,38,0.20
2014-2-20,44.6,36.8,27.8,21.6,15.7,10.2,74,44,26,30.26,30.02,19,4,19,0.00
2014-2-21,42.4,36.1,33.1,42.4,34.2,18.5,100,93,52,30.02,29.64,30,4,30,0.08
2014-2-22,49.4,40.2,30.4,33.1,15.9,6.7,94,41,26,30.05,29.93,16,4,16,0.00
2014-2-23,45.3,40.3,30.4,22.5,14.4,10.6,68,35,26,30.02,29.84,21,3,21,0.00
2014-2-24,36.3,28.6,22.4,19.7,4.2,-3.5,52,35,28,30.08,29.84,31,15,31,0.00
2014-2-25,25.3,23.6,21.7,5.1,-0.3,-3.0,46,35,32,30.08,29.93,22,16,22,0.00
2014-2-26,25.3,21.2,8.8,8.5,-2.6,-12.7,52,34,32,29.99,29.84,28,12,28,0.00
2014-2-27,23.9,13.4,4.4,-0.3,-9.4,-16.6,42,35,30,30.11,29.64,26,12,26,0.00
2014-2-28,18.3,10.4,1.0,-6.2,-11.7,-19.7,36,35,32,30.40,30.11,14,7,14,0.00